Waarnemingen

Advertentie
Mijn weer
San Sebastian/Fuenterrabia, Spanje (8029): temperatuur & dauwpunt: 13.10.2018 11:00:00 - 19.10.2018 11:00:00 (CEST)San Sebastian/Fuenterrabia, Spanje (8029): windsnelheid: 13.10.2018 11:00:00 - 19.10.2018 11:00:00 (CEST)San Sebastian/Fuenterrabia, Spanje (8029): windrichting: 13.10.2018 11:00:00 - 19.10.2018 11:00:00 (CEST)San Sebastian/Fuenterrabia, Spanje (8029): luchtdruk: 13.10.2018 11:00:00 - 19.10.2018 11:00:00 (CEST)San Sebastian/Fuenterrabia, Spanje (8029): zicht: 13.10.2018 11:00:00 - 19.10.2018 11:00:00 (CEST)
Datum & Tijd tt [°C] td [°C] ff [km/u] ff [kn] dd ppp [hPa] vv [km]
19.10.2018 11:00:00 20,0 17,0 0 0 N - 8
19.10.2018 10:00:00 18,0 16,0 2 1 - - 7
19.10.2018 09:00:00 17,0 16,0 0 0 N - 8
19.10.2018 08:00:00 17,4 16,1 0 0 N 1017,4 7
19.10.2018 07:00:00 17,0 16,0 2 1 - - 7
19.10.2018 06:00:00 18,0 16,0 0 0 N - 7
19.10.2018 05:00:00 17,0 16,0 4 2 - - 7
19.10.2018 04:00:00 17,0 16,0 0 0 N - 7
19.10.2018 03:00:00 18,0 16,0 2 1 - - 8
19.10.2018 02:00:00 18,0 16,0 5 3 WNW - 9
19.10.2018 01:00:00 18,0 16,0 0 0 N - 8
19.10.2018 00:00:00 18,0 16,0 0 0 N - 7
18.10.2018 23:00:00 17,0 16,0 5 3 ZW - 7
18.10.2018 22:00:00 17,0 16,0 2 1 - - 8
18.10.2018 21:00:00 18,0 16,0 2 1 - - 7
18.10.2018 20:00:00 18,0 16,2 2 1 - 1016,2 7
18.10.2018 19:00:00 18,0 16,0 4 2 - - 8
18.10.2018 18:00:00 19,0 16,0 5 3 WNW - 10
18.10.2018 17:00:00 19,1 15,6 5 3 NW 1015,2 7
18.10.2018 16:00:00 19,0 16,0 8 4 NNW - 8
18.10.2018 15:00:00 19,0 16,0 5 3 NNO - 6
18.10.2018 14:00:00 18,4 15,3 8 4 NNO 1015,8 6
18.10.2018 13:00:00 18,0 16,0 8 4 NO - 6
18.10.2018 12:00:00 17,0 15,0 4 2 - - 9
18.10.2018 11:00:00 15,6 13,8 0 0 N 1016,3 9
18.10.2018 10:00:00 16,0 14,0 0 0 N - 9
18.10.2018 09:00:00 15,0 14,0 4 2 - - 9
18.10.2018 08:00:00 14,4 13,3 4 2 ZZW 1015,2 12
18.10.2018 07:00:00 14,0 13,0 2 1 - - 10
18.10.2018 06:00:00 14,0 13,0 5 3 ZW - 10
18.10.2018 05:00:00 13,0 13,0 5 3 WZW - 10
18.10.2018 04:00:00 13,0 12,0 4 2 - - 6
18.10.2018 03:00:00 14,0 13,0 0 0 N - 7
18.10.2018 02:00:00 14,0 13,0 4 2 - - 9
18.10.2018 01:00:00 14,0 14,0 5 3 Z - 10
18.10.2018 00:00:00 14,0 14,0 5 3 Z - 10
17.10.2018 23:00:00 15,0 14,0 8 4 Z - 9
17.10.2018 22:00:00 15,0 14,0 4 2 Z - 10
17.10.2018 21:00:00 16,0 15,0 5 3 Z - 10
17.10.2018 20:00:00 17,0 15,7 0 0 N 1014,4 10
17.10.2018 19:00:00 17,0 15,0 9 5 ONO - 10
17.10.2018 18:00:00 18,0 15,0 9 5 NNO - 10
17.10.2018 17:00:00 18,2 14,9 11 6 NNO 1014,9 20
17.10.2018 16:00:00 18,0 15,0 11 6 NNO - 10
17.10.2018 15:00:00 18,0 15,0 13 7 NNO - 10
17.10.2018 14:00:00 18,6 14,9 9 5 NNO 1016,4 10
17.10.2018 13:00:00 18,0 15,0 8 4 N - 10
17.10.2018 12:00:00 19,0 14,0 4 2 - - 10
17.10.2018 11:00:00 16,8 14,4 0 0 N 1018,4 10
17.10.2018 10:00:00 16,0 14,0 2 1 - - 10
17.10.2018 09:00:00 15,0 14,0 4 2 ZZW - 10
17.10.2018 08:00:00 15,1 14,0 4 2 Z 1018,6 10
17.10.2018 07:00:00 15,0 14,0 2 1 - - 10
17.10.2018 06:00:00 15,0 14,0 4 2 - - 10
17.10.2018 05:00:00 15,0 14,0 8 4 ZW - 9
17.10.2018 04:00:00 15,0 14,0 5 3 ZW - 10
17.10.2018 03:00:00 15,0 14,0 5 3 ZZW - 10
17.10.2018 02:00:00 15,0 14,0 4 2 - - 10
17.10.2018 01:00:00 15,0 14,0 0 0 N - 10
17.10.2018 00:00:00 15,0 14,0 2 1 WNW - 10
16.10.2018 23:00:00 15,0 14,0 5 3 Z - 10
16.10.2018 22:00:00 15,0 14,0 5 3 ZZW - 10
16.10.2018 21:00:00 15,0 14,0 4 2 - - 9
16.10.2018 20:00:00 16,6 15,0 0 0 N 1019,3 10
16.10.2018 19:00:00 16,0 15,0 5 3 NO - 10
16.10.2018 18:00:00 18,0 15,0 8 4 NNO - 10
16.10.2018 17:00:00 19,0 15,3 8 4 NNO 1018,5 10
16.10.2018 16:00:00 18,0 16,0 11 6 NNO - 10
16.10.2018 15:00:00 19,0 16,0 13 7 NNO - 10
16.10.2018 14:00:00 20,6 14,5 9 5 NW 1017,8 10
16.10.2018 13:00:00 19,0 15,0 8 4 NO - 10
16.10.2018 12:00:00 18,0 15,0 5 3 NO - 10
16.10.2018 11:00:00 16,6 13,3 2 1 - 1017,3 10
16.10.2018 10:00:00 15,0 13,0 4 2 - - 10
16.10.2018 09:00:00 14,0 12,0 5 3 ZZO - 10
16.10.2018 08:00:00 13,6 12,2 4 2 - 1015,4 10
16.10.2018 07:00:00 13,0 12,0 4 2 - - 10
16.10.2018 06:00:00 13,0 12,0 4 2 - - 10
16.10.2018 05:00:00 12,0 12,0 2 1 - - 10
16.10.2018 04:00:00 13,0 12,0 4 2 - - 10
16.10.2018 03:00:00 13,0 12,0 4 2 ZZW - 10
16.10.2018 02:00:00 12,0 12,0 5 3 Z - 10
16.10.2018 01:00:00 14,0 13,0 4 2 - - 10
16.10.2018 00:00:00 14,0 13,0 5 3 Z - 10
15.10.2018 23:00:00 14,0 13,0 5 3 ZW - 10
15.10.2018 22:00:00 16,0 14,0 0 0 N - 10
15.10.2018 21:00:00 17,0 14,0 4 2 - - 10
15.10.2018 20:00:00 18,0 13,5 13 7 ONO 1009,8 10
15.10.2018 19:00:00 19,0 15,0 9 5 NO - 10
15.10.2018 18:00:00 18,0 15,0 13 7 NNO - 10
15.10.2018 17:00:00 19,0 14,5 16 9 NNO 1008,1 30
15.10.2018 16:00:00 19,0 15,0 13 7 NNO - 10
15.10.2018 15:00:00 18,0 14,0 11 6 NNO - 10
15.10.2018 14:00:00 18,5 13,6 13 7 NNO 1008,1 10
15.10.2018 13:00:00 18,0 13,0 13 7 NNO - 10
15.10.2018 12:00:00 17,0 13,0 8 4 N - 10
15.10.2018 11:00:00 16,4 11,6 5 3 ZZO 1008,2 30
15.10.2018 10:00:00 14,0 13,0 8 4 Z - 10
15.10.2018 09:00:00 14,0 12,0 8 4 ZW - 10
15.10.2018 08:00:00 14,0 12,0 4 2 - 1008,6 10
15.10.2018 07:00:00 14,0 12,0 9 5 ZW - 10
15.10.2018 06:00:00 14,0 12,0 9 5 ZZW - 10
15.10.2018 05:00:00 14,0 12,0 9 5 WZW - 10
15.10.2018 04:00:00 14,0 12,0 11 6 WZW - 10
15.10.2018 03:00:00 13,0 13,0 11 6 ZZW - 6
15.10.2018 02:00:00 14,0 12,0 11 6 ZZW - 4,0
15.10.2018 01:00:00 14,0 11,0 11 6 ZW - 10
15.10.2018 00:00:00 14,0 11,0 9 5 WZW - 10
14.10.2018 23:00:00 14,0 12,0 11 6 ZW - 10
14.10.2018 22:00:00 14,0 12,0 11 6 ZW - 10
14.10.2018 21:00:00 13,0 12,0 13 7 ZZW - 5
14.10.2018 20:00:00 13,6 12,8 11 6 ZW 1010,3 2,7
14.10.2018 19:00:00 15,0 12,0 18 10 W - 4,0
14.10.2018 18:00:00 15,0 12,0 18 10 WZW - 4,8
14.10.2018 17:00:00 15,5 12,3 21 11 WZW 1008,9 25
14.10.2018 16:00:00 15,0 12,0 16 9 W - 10
14.10.2018 15:00:00 15,0 13,0 21 11 ZW - 4,5
14.10.2018 14:00:00 14,8 13,7 21 11 ZW 1008,2 2,7
14.10.2018 13:00:00 15,0 14,0 18 10 - - 9
14.10.2018 12:00:00 16,0 14,0 34 18 W - 9
14.10.2018 11:00:00 18,2 16,0 31 17 WNW 1004,7 10
14.10.2018 10:00:00 25,0 15,0 26 14 ZZW - 10
14.10.2018 09:00:00 25,0 15,0 24 13 Z - 10
14.10.2018 08:00:00 24,6 13,5 16 9 - 1001,6 10
14.10.2018 07:00:00 24,0 15,0 34 18 Z - 10
14.10.2018 06:00:00 25,0 15,0 26 14 Z - 10
14.10.2018 05:00:00 25,0 15,0 15 8 Z - 10
14.10.2018 04:00:00 25,0 15,0 15 8 ZZW - 10
14.10.2018 03:00:00 26,0 14,0 15 8 Z - 10
14.10.2018 02:00:00 27,0 15,0 34 18 Z - 10
14.10.2018 01:00:00 27,0 15,0 9 5 - - 10
14.10.2018 00:00:00 25,0 15,0 5 3 NNO - 10
13.10.2018 23:00:00 24,0 16,0 8 4 NO - 10
13.10.2018 22:00:00 22,0 16,0 4 2 - - 10
13.10.2018 21:00:00 25,0 16,0 5 3 ZZW - 10
13.10.2018 20:00:00 27,2 14,6 4 2 OZO 1009,6 10
13.10.2018 19:00:00 28,0 16,0 9 5 ZZO - 10
13.10.2018 18:00:00 28,0 17,0 5 3 - - 10
13.10.2018 17:00:00 28,8 14,6 11 6 Z 1010,9 30
13.10.2018 16:00:00 29,0 17,0 9 5 Z - 10
13.10.2018 15:00:00 29,0 17,0 13 7 WZW - 10
13.10.2018 14:00:00 28,4 14,3 16 9 ZZW 1013,2 10
13.10.2018 13:00:00 28,0 17,0 21 11 ZZW - 10
13.10.2018 12:00:00 27,0 16,0 13 7 ZZW - 10
13.10.2018 11:00:00 25,7 14,8 15 8 ZW 1015,2 30

tt = temperatuur
td = dauwpunt
ff = windsnelheid
dd = windrichting
ppp = luchtdruk
vv = zicht

Weerstations in de omgeving